Preview of NWS' New Version of Forecast
This preview is not operational and should not be used for support decisions.

Regional Weather Roundup (RWR)

Issued by National Weather Service (NWS)

                            
000
ASUS44 KJAN 151610
RWRMS 

MISSISSIPPI HOURLY WEATHER ROUNDUP
NATIONAL WEATHER SERVICE JACKSON MS
1100 AM CDT SUN SEP 15 2019

NOTE: "FAIR: INDICATES FEW OR NO CLOUDS BELOW 12,000 FEET WITH NO
SIGNIFICANT WEATHER AND/OR OBSTRUCTIONS TO VISIBILITY.

MSZ001>002-007>008-010>013-018>021-025>028-034>036-151700-
NORTHWEST MISSISSIPPI
  
CITY           SKY/WX    TMP DP  RH WIND       PRES   REMARKS
BATESVILLE     FAIR      90  72  55 CALM      30.14F HX  96           
CLARKSDALE       N/A     90  73  58 CALM      30.14F HX  98           
CLEVELAND      FAIR      89  72  56 E5        30.12S HX  96           
GREENWOOD      FAIR      89  70  53 S6        30.12F HX  94           
GREENVILLE     FAIR      90  71  53 E3        30.11S HX  96           
OLIVE BRANCH   SUNNY     90  72  55 SE6       30.16S HX  96           
OXFORD         FAIR      86  68  54 VRB3      30.17S                  
TUNICA           N/A     86  72  62 S6        30.15F HX  92           
WINONA         FAIR      86  71  61 SE6       30.14F HX  91           
$$

MSZ003>006-009-014>017-022>024-029>033-037>039-151700-
NORTHEAST MISSISSIPPI
  
CITY           SKY/WX    TMP DP  RH WIND       PRES   REMARKS
ABERDEEN       FAIR      86  68  54 VRB5      30.16S                  
COLUMBUS AFB   FAIR      87  71  60 E5        30.14F HX  92           
CORINTH        FAIR      88  70  55 CALM      30.16F HX  92           
GOLDN TRIANGLE FAIR      86  72  62 VRB3      30.15F HX  92           
STARKVILLE     FAIR      86  70  58 CALM      30.15F HX  90           
TUPELO         FAIR      88  69  53 S5        30.15F HX  92           
$$

MSZ040-058-151700-
CENTRAL MISSISSIPPI
  
CITY           SKY/WX    TMP DP  RH WIND       PRES   REMARKS
JACKSON INTL   FAIR      88  68  51 E5        30.10F HX  91           
JACKSON HAWKNS FAIR      88  69  53 E5        30.11F HX  92           
MADISON        FAIR      86  70  58 E6        30.13S HX  90           
MERIDIAN KEY   FAIR      88  71  57 E10       30.11F HX  94           
MERIDIAN NAS   FAIR      87  71  58 NE9       30.13F HX  93           
RAYMOND        FAIR      90  73  58 VRB3      30.10F HX  98           
VICKSBURG VKS  SUNNY     90  70  51 VRB5G12   30.09F HX  95           
$$

MSZ059>079-151700-
SOUTH MISSISSIPPI
  
CITY           SKY/WX    TMP DP  RH WIND       PRES   REMARKS
BROOKHAVEN     FAIR      86  72  62 N7        30.12S HX  92           
HATTIESBURG    FAIR      84  71  65 E10       30.10S                  
LAUREL         SUNNY     85  72  64 E6        30.10S HX  92           
MCCOMB         FAIR      85  70  60 VRB6      30.09S                  
NATCHEZ        FAIR      88  70  55 SE7       30.09F HX  93           
PINE BELT      FAIR      83  73  72 E8        30.11S                  
$$

MSZ080>082-151700-
COASTAL MISSISSIPPI
  
CITY           SKY/WX    TMP DP  RH WIND       PRES   REMARKS
BILOXI         FAIR      89  68  50 E12       30.04F HX  92           
PASCAGOULA     FAIR      89  70  53 NE10G17   30.05F HX  94           
GULFPORT       FAIR      89  68  49 E10G18    30.04F HX  93           
$$

LAZ007>009-015>016-023>026-151700-
NORTHEAST LOUISIANA
  
CITY           SKY/WX    TMP DP  RH WIND       PRES   REMARKS
BASTROP        FAIR      90  70  51 E5        30.11F HX  96           
TALLULAH/VBURG FAIR      91  69  48 SE6       30.09F HX  96           
VIDALIA        FAIR     N/A N/A N/A E5        30.07S                  
$$